Regional Weather Roundup
Issued by NWS

Home | Current Version | Previous Version | Graphics & Text | Print | Product List | Glossary On
Versions: 1 2 3 4 5 6 7 8 9 10 11 12 13 14 15 16 17 18 19 20 21 22 23 24 25 26 27 28 29 30 31 32 33 34 35 36 37 38 39 40 41 42 43 44 45 46 47 48 49 50
000
ASUS43 KOAX 241010
RWRNE

WEATHER ROUNDUP FOR NEBRASKA
NATIONAL WEATHER SERVICE OMAHA NE
500 AM CDT MON APR 24 2017

NOTES: SATELLITE DATA IS BEING USED TO AUGMENT CLOUD COVER ABOVE
       12000 FEET.
       "FAIR" INDICATES FEW OR NO CLOUDS BELOW 12,000 FEET WITH NO
       SIGNIFICANT WEATHER AND/OR OBSTRUCTIONS TO VISIBILITY.

  * THESE STATIONS DO NOT REPORT WEATHER SUCH AS RAIN...SNOW OR FOG.

NEZ001>004-019>022-054>056-241100-
NEBRASKA PANHANDLE

CITY           SKY/WX    TMP DP  RH WIND       PRES   REMARKS
SCOTTSBLUFF    CLOUDY    48  38  68 W8        29.62S
ALLIANCE       CLOUDY    42  38  85 W8        29.57R
CHADRON        PTCLDY    43  40  89 W3        29.58S
KIMBALL        CLOUDY    51  41  68 NW13G22   29.65R
SIDNEY         CLOUDY    49  39  68 NW15      29.59R
$$

NEZ057>060-069>072-079>082-241100-
SOUTHWEST NEBRASKA

CITY           SKY/WX    TMP DP  RH WIND       PRES   REMARKS
NORTH PLATTE   CLOUDY    50  36  58 SE12      29.55F
IMPERIAL       PTCLDY    44  36  73 SE8       29.51F
LEXINGTON      CLOUDY    52  35  51 S21G29    29.59F
MCCOOK         CLOUDY    53  35  50 S10       29.56F
OGALLALA       PTCLDY    47  33  57 CALM      29.55R
$$

NEZ005>010-023>029-035>040-094-241100-
NORTH CENTRAL NEBRASKA

CITY           SKY/WX    TMP DP  RH WIND       PRES   REMARKS
VALENTINE      CLOUDY    55  32  41 SW9       29.56F
AINSWORTH      CLOUDY    52  38  58 SW8G24    29.58R
BROKEN BOW     CLOUDY    52  34  50 S23G37    29.59F
O`NEILL        CLOUDY    53  34  48 S14       29.63F
ORD            MOCLDY    52  34  50 SE13      29.63F
THEDFORD       CLOUDY    52  36  53 S15G22    29.55F
$$

NEZ041-046>049-061>064-073>077-083>087-241100-
SOUTH CENTRAL NEBRASKA

CITY           SKY/WX    TMP DP  RH WIND       PRES   REMARKS
GRAND ISLAND   PTCLDY    52  36  54 S21G26    29.68F
AURORA         CLOUDY    52  33  48 S20G26    29.70F
HASTINGS       CLOUDY    52  34  50 S17G30    29.69F
HEBRON         CLOUDY    51  36  56 S18G26    29.76F
HOLDREGE       CLOUDY    53  33  47 S23G31    29.62F
KEARNEY *      CLOUDY    54  32  43 S20G28    29.64F
YORK           PTCLDY    50  34  53 S22G28    29.72F
$$

NEZ011>018-030>034-042>045-241100-
NORTHEAST NEBRASKA

CITY           SKY/WX    TMP DP  RH WIND       PRES   REMARKS
NORFOLK        CLOUDY    52  33  48 S23G31    29.69F
ALBION         CLOUDY    51  35  54 SE9       29.69F
BLAIR          CLOUDY    54  37  53 S17G24    29.79F
FREMONT        MOCLDY    51  37  58 SE18      29.77F
TEKAMAH        CLOUDY    49  38  65 SE13      29.77F
WAYNE          CLOUDY    50  36  59 S14       29.72F
$$

NEZ050>053-065>068-078-088>093-241100-
SOUTHEAST NEBRASKA

CITY           SKY/WX    TMP DP  RH WIND       PRES   REMARKS
LINCOLN        CLOUDY    52  37  56 S15       29.79F
OMAHA EPPLEY   CLOUDY    54  36  50 S14       29.81F
BEATRICE       CLOUDY    53  38  57 S15G21    29.79F
FALLS CITY     PTCLDY    44  37  76 SE7       29.86F
NEBRASKA CITY  PTCLDY    49  32  51 S12       29.84F
PLATTSMOUTH    MOCLDY    52  32  46 SE12G18   29.81F
$$

NEZ044-045-051>053-067-241100-
OMAHA AREA

CITY           SKY/WX    TMP DP  RH WIND       PRES   REMARKS
OMAHA EPPLEY   CLOUDY    54  36  50 S14       29.81F
BLAIR          CLOUDY    54  37  53 S17G24    29.79F
FREMONT        MOCLDY    51  37  58 SE18      29.77F
MILLARD        CLOUDY    55  38  54 SE10      29.80F
OFFUTT AFB     CLOUDY    53  36  53 S8        29.81F
PLATTSMOUTH    MOCLDY    52  32  46 SE12G18   29.81F
WAHOO          FAIR      48  37  64 SE10      29.78F
$$



USA.gov is the U.S. government's official web portal to all federal, state and local government web resources and services.